• en France
  • Liste des pays
  • À 7 jours
  • Température de l'eau
  • Carte satellitaire
  • Carte météo
  • Widgets météo
  • user-avatar
    Se connecter

    Météo par heure à Kosorzha

    Ce jour, 22 Octobre, Lundi

    Heure Température Précipitation Vent Pression Humidité
    00:00 +4°C° 0 mm 3 m/s 753 mmHg 79%
    01:00 +4°C° 0 mm 3 m/s 753 mmHg 80%
    02:00 +4°C° 0 mm 2 m/s 753 mmHg 83%
    03:00 +4°C° 0 mm 2 m/s 753 mmHg 84%
    04:00 +3°C° 0 mm 3 m/s 753 mmHg 84%
    05:00 +3°C° 0 mm 3 m/s 752 mmHg 84%
    06:00 +4°C° 0 mm 3 m/s 752 mmHg 82%
    07:00 +4°C° 0 mm 3 m/s 752 mmHg 79%
    08:00 +5°C° 0 mm 3 m/s 752 mmHg 76%
    09:00 +7°C° 0 mm 3 m/s 752 mmHg 72%
    10:00 +8°C° 0 mm 3 m/s 752 mmHg 68%
    11:00 +9°C° 0 mm 3 m/s 752 mmHg 64%
    12:00 +10°C° 0 mm 2 m/s 751 mmHg 64%
    13:00 +10°C° 0 mm 2 m/s 751 mmHg 64%
    14:00 +10°C° 0 mm 2 m/s 750 mmHg 64%
    15:00 +10°C° 0 mm 2 m/s 750 mmHg 67%
    16:00 +10°C° 0 mm 1 m/s 750 mmHg 70%
    17:00 +10°C° 0 mm 1 m/s 749 mmHg 73%
    18:00 +9°C° 0 mm 1 m/s 749 mmHg 75%
    19:00 +9°C° 0 mm 1 m/s 749 mmHg 76%
    20:00 +8°C° 0 mm 0 m/s 748 mmHg 78%
    21:00 +9°C° 0.1 mm 1 m/s 748 mmHg 78%
    22:00 +9°C° 0.1 mm 1 m/s 747 mmHg 78%
    23:00 +9°C° 0.1 mm 1 m/s 747 mmHg 78%

    Demain, 23 Octobre, Mardi

    Heure Température Précipitation Vent Pression Humidité
    00:00 +8°C° 0.2 mm 2 m/s 747 mmHg 78%
    01:00 +8°C° 0.2 mm 2 m/s 746 mmHg 77%
    02:00 +7°C° 0.2 mm 2 m/s 746 mmHg 76%
    03:00 +7°C° 0 mm 2 m/s 745 mmHg 76%
    04:00 +6°C° 0 mm 2 m/s 745 mmHg 76%
    05:00 +6°C° 0 mm 2 m/s 744 mmHg 76%
    06:00 +5°C° 0 mm 3 m/s 744 mmHg 73%
    07:00 +5°C° 0 mm 3 m/s 744 mmHg 71%
    08:00 +5°C° 0 mm 3 m/s 744 mmHg 68%
    09:00 +7°C° 0 mm 3 m/s 743 mmHg 64%
    10:00 +7°C° 0 mm 4 m/s 743 mmHg 60%
    11:00 +8°C° 0 mm 4 m/s 742 mmHg 56%
    12:00 +10°C° 0 mm 4 m/s 742 mmHg 56%
    13:00 +9°C° 0 mm 5 m/s 741 mmHg 55%
    14:00 +9°C° 0 mm 5 m/s 741 mmHg 55%
    15:00 +8°C° 0 mm 5 m/s 740 mmHg 59%
    16:00 +8°C° 0 mm 4 m/s 740 mmHg 63%
    17:00 +8°C° 0 mm 3 m/s 740 mmHg 67%
    18:00 +7°C° 0 mm 4 m/s 739 mmHg 69%
    19:00 +7°C° 0 mm 4 m/s 739 mmHg 71%
    20:00 +6°C° 0 mm 4 m/s 738 mmHg 74%
    21:00 +6°C° 0 mm 4 m/s 738 mmHg 75%
    22:00 +6°C° 0 mm 4 m/s 737 mmHg 77%
    23:00 +6°C° 0 mm 4 m/s 737 mmHg 78%

    Après-demain, 24 Octobre, Mercredi

    Heure Température Précipitation Vent Pression Humidité
    00:00 +6°C° 0.1 mm 4 m/s 736 mmHg 78%
    01:00 +6°C° 0.1 mm 5 m/s 735 mmHg 77%
    02:00 +6°C° 0.1 mm 5 m/s 734 mmHg 76%
    03:00 +6°C° 0.1 mm 5 m/s 734 mmHg 76%
    04:00 +5°C° 0.1 mm 5 m/s 733 mmHg 77%
    05:00 +5°C° 0.1 mm 5 m/s 732 mmHg 77%
    06:00 +5°C° 0.1 mm 5 m/s 731 mmHg 76%
    07:00 +5°C° 0.1 mm 6 m/s 731 mmHg 76%
    08:00 +5°C° 0.1 mm 6 m/s 730 mmHg 76%
    09:00 +5°C° 0.3 mm 7 m/s 729 mmHg 77%
    10:00 +6°C° 0.3 mm 7 m/s 729 mmHg 78%
    11:00 +6°C° 0.3 mm 7 m/s 728 mmHg 79%
    12:00 +6°C° 0.1 mm 7 m/s 728 mmHg 77%
    13:00 +8°C° 0.1 mm 6 m/s 727 mmHg 76%
    14:00 +8°C° 0.1 mm 6 m/s 727 mmHg 75%
    15:00 +8°C° 0.2 mm 5 m/s 727 mmHg 78%
    16:00 +8°C° 0.2 mm 5 m/s 727 mmHg 80%
    17:00 +8°C° 0.2 mm 4 m/s 727 mmHg 82%
    18:00 +7°C° 0.4 mm 4 m/s 727 mmHg 84%
    19:00 +7°C° 0.4 mm 4 m/s 726 mmHg 86%
    20:00 +7°C° 0.4 mm 4 m/s 726 mmHg 88%
    21:00 +7°C° 0.3 mm 4 m/s 726 mmHg 88%
    22:00 +7°C° 0.3 mm 4 m/s 725 mmHg 89%
    23:00 +7°C° 0.3 mm 4 m/s 725 mmHg 90%

    25 Octobre, Jeudi

    Heure Température Précipitation Vent Pression Humidité
    00:00 +7°C° 0.3 mm 5 m/s 724 mmHg 90%
    01:00 +8°C° 0.3 mm 5 m/s 724 mmHg 90%
    02:00 +8°C° 0.3 mm 5 m/s 723 mmHg 90%
    03:00 +8°C° 1.4 mm 5 m/s 722 mmHg 91%
    04:00 +7°C° 1.4 mm 6 m/s 721 mmHg 92%
    05:00 +7°C° 1.4 mm 6 m/s 721 mmHg 93%
    06:00 +6°C° 1.3 mm 7 m/s 720 mmHg 88%
    07:00 +5°C° 1.3 mm 7 m/s 720 mmHg 84%
    08:00 +5°C° 1.3 mm 8 m/s 719 mmHg 79%
    09:00 +5°C° 0.2 mm 8 m/s 719 mmHg 79%
    10:00 +5°C° 0.2 mm 8 m/s 719 mmHg 79%
    11:00 +5°C° 0.2 mm 8 m/s 719 mmHg 79%
    12:00 +5°C° 0.5 mm 9 m/s 720 mmHg 79%
    13:00 +5°C° 0.5 mm 9 m/s 720 mmHg 80%
    14:00 +5°C° 0.5 mm 10 m/s 720 mmHg 80%
    15:00 +3°C° 0.5 mm 10 m/s 721 mmHg 79%
    16:00 +3°C° 0.5 mm 10 m/s 722 mmHg 78%
    17:00 +3°C° 0.5 mm 10 m/s 723 mmHg 77%
    18:00 +3°C° 0.3 mm 10 m/s 724 mmHg 76%
    19:00 +2°C° 0.3 mm 10 m/s 725 mmHg 75%
    20:00 +2°C° 0.3 mm 9 m/s 726 mmHg 74%
    21:00 +2°C° 0 mm 9 m/s 727 mmHg 75%
    22:00 +1°C° 0 mm 8 m/s 727 mmHg 75%
    23:00 0°C° 0 mm 7 m/s 728 mmHg 76%

    26 Octobre, Vendredi

    Heure Température Précipitation Vent Pression Humidité
    00:00 0°C° 0 mm 7 m/s 729 mmHg 78%
    01:00 0°C° 0 mm 7 m/s 729 mmHg 79%
    02:00 0°C° 0 mm 7 m/s 730 mmHg 81%
    03:00 0°C° 0 mm 7 m/s 730 mmHg 80%
    04:00 0°C° 0 mm 7 m/s 731 mmHg 79%
    05:00 0°C° 0 mm 7 m/s 731 mmHg 79%
    06:00 -1°C° 0 mm 7 m/s 732 mmHg 78%
    07:00 -1°C° 0 mm 7 m/s 733 mmHg 77%
    08:00 -1°C° 0 mm 7 m/s 733 mmHg 76%
    09:00 +1°C° 0 mm 6 m/s 734 mmHg 74%
    10:00 +2°C° 0 mm 6 m/s 735 mmHg 71%
    11:00 +2°C° 0 mm 6 m/s 735 mmHg 69%
    12:00 +3°C° 0 mm 6 m/s 736 mmHg 68%
    13:00 +3°C° 0 mm 6 m/s 736 mmHg 68%
    14:00 +3°C° 0 mm 6 m/s 737 mmHg 67%
    15:00 +3°C° 0 mm 6 m/s 737 mmHg 70%
    16:00 +2°C° 0 mm 6 m/s 738 mmHg 72%
    17:00 +2°C° 0 mm 5 m/s 739 mmHg 75%
    18:00 +2°C° 0 mm 5 m/s 740 mmHg 76%
    19:00 +2°C° 0 mm 5 m/s 740 mmHg 76%
    20:00 +3°C° 0 mm 4 m/s 741 mmHg 77%
    21:00 +1°C° 0 mm 4 m/s 742 mmHg 79%
    22:00 +1°C° 0 mm 4 m/s 742 mmHg 80%
    23:00 +1°C° 0 mm 4 m/s 743 mmHg 82%

    27 Octobre, Samedi

    Heure Température Précipitation Vent Pression Humidité
    00:00 0°C° 0 mm 4 m/s 743 mmHg 84%
    01:00 0°C° 0 mm 4 m/s 744 mmHg 86%
    02:00 0°C° 0 mm 4 m/s 745 mmHg 87%
    03:00 -1°C° 0 mm 4 m/s 745 mmHg 88%
    04:00 0°C° 0 mm 3 m/s 746 mmHg 90%
    05:00 0°C° 0 mm 3 m/s 746 mmHg 91%
    06:00 0°C° 0 mm 3 m/s 746 mmHg 88%
    07:00 0°C° 0 mm 4 m/s 747 mmHg 85%
    08:00 +1°C° 0 mm 4 m/s 747 mmHg 81%
    09:00 +3°C° 0 mm 4 m/s 747 mmHg 76%
    10:00 +3°C° 0 mm 5 m/s 747 mmHg 71%
    11:00 +6°C° 0 mm 5 m/s 747 mmHg 65%
    12:00 +5°C° 0 mm 6 m/s 747 mmHg 65%
    13:00 +7°C° 0 mm 6 m/s 747 mmHg 64%
    14:00 +7°C° 0 mm 6 m/s 746 mmHg 63%
    15:00 +7°C° 0 mm 5 m/s 746 mmHg 67%
    16:00 +6°C° 0 mm 4 m/s 746 mmHg 70%
    17:00 +5°C° 0 mm 4 m/s 746 mmHg 74%
    18:00 +5°C° 0 mm 4 m/s 746 mmHg 76%
    19:00 +5°C° 0 mm 4 m/s 746 mmHg 78%
    20:00 +5°C° 0 mm 4 m/s 746 mmHg 80%
    21:00 +6°C° 0 mm 5 m/s 746 mmHg 83%
    22:00 +6°C° 0 mm 5 m/s 746 mmHg 86%
    23:00 +7°C° 0 mm 5 m/s 746 mmHg 89%

    28 Octobre, Dimanche

    Heure Température Précipitation Vent Pression Humidité
    00:00 +8°C° 0.3 mm 5 m/s 746 mmHg 90%
    01:00 +8°C° 0.3 mm 5 m/s 746 mmHg 92%
    02:00 +9°C° 0.3 mm 5 m/s 746 mmHg 94%
    03:00 +9°C° 0.2 mm 6 m/s 746 mmHg 93%
    04:00 +10°C° 0.2 mm 6 m/s 746 mmHg 93%
    05:00 +10°C° 0.2 mm 6 m/s 745 mmHg 92%
    06:00 +10°C° 0 mm 7 m/s 746 mmHg 91%
    07:00 +10°C° 0 mm 7 m/s 746 mmHg 90%
    08:00 +10°C° 0 mm 7 m/s 746 mmHg 88%
    09:00 +11°C° 0 mm 7 m/s 746 mmHg 84%
    10:00 +11°C° 0 mm 7 m/s 746 mmHg 80%
    11:00 +12°C° 0 mm 8 m/s 746 mmHg 76%
    12:00 +12°C° 0 mm 8 m/s 746 mmHg 72%
    13:00 +13°C° 0 mm 8 m/s 745 mmHg 69%
    14:00 +15°C° 0 mm 8 m/s 745 mmHg 65%
    15:00 +14°C° 0 mm 7 m/s 745 mmHg 66%
    16:00 +14°C° 0 mm 7 m/s 745 mmHg 67%
    17:00 +13°C° 0 mm 6 m/s 745 mmHg 69%
    18:00 +13°C° 0 mm 6 m/s 745 mmHg 67%
    19:00 +13°C° 0 mm 6 m/s 745 mmHg 66%
    20:00 +12°C° 0 mm 7 m/s 745 mmHg 65%
    21:00 +13°C° 0 mm 6 m/s 745 mmHg 66%
    22:00 +13°C° 0 mm 6 m/s 746 mmHg 67%
    23:00 +13°C° 0 mm 6 m/s 746 mmHg 68%
    Voir plus